This is the latest recevied weather packets stored in our database for station/object N6SPP. If no packets are shown the sender has not sent any weather packets the latest 10 day(s).
| Time | Temp. | Humidity | Pressure | Rain* | Wind** | Luminosity | Snow |
|---|---|---|---|---|---|---|---|
| 1777373933 | 12.22° C | 67% | 1020.1 hPa | 0 mm | - | 0 W/m² | - |
| 1777373630 | 12.22° C | 67% | 1020.2 hPa | 0 mm | - | 0 W/m² | - |
| 1777373327 | 12.78° C | 67% | 1020 hPa | 0 mm | - | 0 W/m² | - |
| 1777373027 | 12.22° C | 67% | 1020 hPa | 0 mm | - | 0 W/m² | - |
| 1777372723 | 12.22° C | 67% | 1020 hPa | 0 mm | - | 0 W/m² | - |
| 1777372422 | 12.22° C | 66% | 1020.1 hPa | 0 mm | - | 0 W/m² | - |
| 1777372121 | 11.67° C | 67% | 1019.9 hPa | 0 mm | - | 0 W/m² | - |
| 1777371816 | 11.67° C | 67% | 1020.2 hPa | 0 mm | - | 0 W/m² | - |
| 1777371513 | 12.22° C | 66% | 1020.1 hPa | 0 mm | - | 0 W/m² | - |
| 1777371210 | 11.67° C | 67% | 1020.2 hPa | 0 mm | - | 0 W/m² | - |
| 1777370906 | 11.67° C | 67% | 1020.2 hPa | 0 mm | - | 0 W/m² | - |
| 1777370601 | 11.67° C | 67% | 1020.1 hPa | 0 mm | - | 0 W/m² | - |
| 1777370298 | 12.78° C | 64% | 1020.2 hPa | 0 mm | - | 0 W/m² | - |
| 1777369993 | 12.78° C | 63% | 1020.1 hPa | 0 mm | - | 0 W/m² | - |
| 1777369691 | 13.33° C | 62% | 1020.3 hPa | 0 mm | - | 0 W/m² | - |
| 1777369391 | 12.78° C | 62% | 1020.1 hPa | 0 mm | - | 0 W/m² | - |
| 1777369086 | 12.78° C | 64% | 1020.2 hPa | 0 mm | - | 0 W/m² | - |
| 1777368784 | 12.78° C | 64% | 1020.1 hPa | 0 mm | - | 0 W/m² | - |
| 1777368479 | 12.78° C | 64% | 1020.1 hPa | 0 mm | - | 0 W/m² | - |
| 1777368175 | 12.78° C | 64% | 1020.4 hPa | 0 mm | - | 0 W/m² | - |
| 1777367874 | 12.78° C | 65% | 1020.4 hPa | 0 mm | - | 0 W/m² | - |
| 1777367569 | 12.78° C | 64% | 1020.4 hPa | 0 mm | - | 0 W/m² | - |
| 1777367265 | 12.78° C | 64% | 1020.5 hPa | 0 mm | - | 0 W/m² | - |
| 1777366960 | 12.78° C | 64% | 1020.4 hPa | 0 mm | - | 0 W/m² | - |
| 1777366655 | 12.78° C | 64% | 1020.4 hPa | 0 mm | - | 0 W/m² | - |
* Rain latest hour (hover to see other rain measurements)
** Current wind speed in m/s (hover to see current wind gust speed)